Location: Mainz-Finthen
(49.9906°N, 8.1713°E)
Time: 07:17:38
(UTC+00:00)

N. Korean satellite - Pass Details

Date: 08 December 2022
Orbit: 407 x 442 km, 97.3° (Epoch: 04 February)

Event Time Altitude Azimuth Distance (km) Brightness Sun altitude
Rises 04:01:01 0° 25° (NNE) 2,508 10.5 -29.6°
Reaches altitude 10° 04:03:30 10° 43° (NE) 1,618 9.7 -29.2°
Maximum altitude 04:06:08 20° 93° (E) 1,118 9.1 -28.8°
Drops below altitude 10° 04:08:43 10° 142° (SE) 1,586 9.6 -28.4°
Sets 04:11:06 0° 160° (SSE) 2,440 10.4 -28.0°
